,,PA_Meas_PMT16A,,PR_Meas_QMR101_102,,RH_Meas_QMH101,,SR_Meas_QMS101,,TA_Meas_QMH101,,GenWind,,GenWind,
time,status,PA,status,PR,status,RH,status,SR,status,TA,status,DirAvg,status,SpdAvg,
2016-07-13, 07:42:04,VALID,917.93,VALID,0,INVALID,114.351,VALID,83.052,VALID,19.7418,INVALID,360,INVALID,0,
2016-07-13, 07:45:04,VALID,917.92,VALID,0,INVALID,114.351,VALID,116.681,VALID,19.8198,VALID,15,VALID,0,
2016-07-13, 07:50:04,VALID,918.034,VALID,0,INVALID,114.42,VALID,91.9696,VALID,19.8408,VALID,345,VALID,1.56523,
2016-07-13, 07:52:04,VALID,918.009,VALID,0,INVALID,114.336,VALID,104.648,VALID,19.8393,VALID,350,VALID,1.06289,
2016-07-13, 07:53:04,VALID,918.006,VALID,0,INVALID,114.313,VALID,105.292,VALID,19.8798,VALID,5,VALID,1.30273,
2016-07-13, 08:06:04,VALID,918.163,VALID,0,INVALID,113.886,VALID,121.194,VALID,19.8393,VALID,5,VALID,0.379687,
2016-07-13, 08:07:04,VALID,918.213,VALID,0,INVALID,113.993,VALID,140.64,VALID,19.8393,VALID,7,VALID,1.31523,
2016-07-13, 08:08:04,VALID,918.213,VALID,0,INVALID,113.962,VALID,148.913,VALID,19.8978,VALID,19,VALID,1.04609,
2016-07-13, 08:09:04,VALID,918.249,VALID,0,INVALID,114.092,VALID,126.566,VALID,19.8783,VALID,32,VALID,1.11641,
2016-07-13, 08:11:04,VALID,918.285,VALID,0,INVALID,114.191,VALID,143.971,VALID,19.8783,VALID,23,VALID,1.64648,
2016-07-13, 08:12:04,VALID,918.325,VALID,0,INVALID,114.328,VALID,162.344,VALID,19.8393,VALID,38,VALID,2.03164,
2016-07-13, 08:13:04,VALID,918.336,VALID,0,INVALID,114.153,VALID,141.715,VALID,19.8978,VALID,54,VALID,1.26016,
2016-07-13, 08:14:04,VALID,918.336,VALID,0,INVALID,114.039,VALID,160.302,VALID,19.9953,VALID,358,VALID,1.45469,
2016-07-13, 08:15:04,VALID,918.329,VALID,0,INVALID,114.214,VALID,237.338,VALID,19.9953,VALID,22,VALID,0.259766,
2016-07-13, 08:16:04,VALID,918.313,VALID,0,INVALID,114.222,VALID,208.221,VALID,20.0343,VALID,341,VALID,1.63633,
2016-07-13, 08:17:04,VALID,918.308,VALID,0,INVALID,114.374,VALID,324.043,VALID,20.0538,VALID,353,VALID,1.40039,
2016-07-13, 08:18:04,VALID,918.333,VALID,0,INVALID,114.397,VALID,366.267,VALID,20.1318,VALID,18,VALID,1.79023,
2016-07-13, 08:19:04,VALID,918.312,VALID,0,INVALID,114.519,VALID,369.812,VALID,20.1693,VALID,25,VALID,1.04844,
2016-07-13, 08:20:04,VALID,918.263,VALID,0,INVALID,114.466,VALID,333.712,VALID,20.3464,VALID,356,VALID,0.257813,
2016-07-13, 08:21:04,VALID,918.255,VALID,0,INVALID,114.633,VALID,367.879,VALID,20.4634,VALID,49,VALID,0,
2016-07-13, 08:22:04,VALID,918.273,VALID,0,INVALID,114.976,VALID,280.314,VALID,20.5414,VALID,57,VALID,0,
2016-07-13, 08:23:04,VALID,918.248,VALID,0,INVALID,115.373,VALID,339.084,VALID,20.6179,VALID,52,VALID,1.47852,
2016-07-13, 08:24:04,VALID,918.211,VALID,0,INVALID,115.35,VALID,310.827,VALID,20.678,VALID,62,VALID,2.28398,
2016-07-13, 08:25:04,VALID,918.206,VALID,0,INVALID,114.626,VALID,399.574,VALID,20.6975,VALID,40,VALID,1.48789,
2016-07-13, 08:26:04,VALID,918.213,VALID,0,INVALID,113.97,VALID,268.388,VALID,20.7755,VALID,49,VALID,0.380078,
2016-07-13, 08:27:04,VALID,918.158,VALID,0,INVALID,113.505,VALID,223.692,VALID,20.8535,VALID,35,VALID,0,
2016-07-13, 08:28:04,VALID,918.18,VALID,0,INVALID,113.467,VALID,385.499,VALID,20.9316,VALID,30,VALID,0,
2016-07-13, 08:29:04,VALID,918.157,VALID,0,INVALID,113.2,VALID,362.936,VALID,21.0096,VALID,22,VALID,0,
2016-07-13, 08:30:04,VALID,918.159,VALID,0,INVALID,112.987,VALID,372.928,VALID,21.2047,VALID,17,VALID,0,
2016-07-13, 08:31:04,VALID,918.109,VALID,0,INVALID,110.982,VALID,347.142,VALID,21.3608,VALID,8,VALID,0,
2016-07-13, 08:32:04,VALID,918.139,VALID,0,INVALID,110.166,VALID,334.249,VALID,21.5559,VALID,12,VALID,0,
2016-07-13, 08:33:04,VALID,918.143,VALID,0,VALID,104,VALID,350.903,VALID,21.7315,VALID,45,VALID,0,
2016-07-13, 08:34:04,VALID,918.091,VALID,0,VALID,104,VALID,356.597,VALID,21.8664,VALID,6,VALID,0,
2016-07-13, 08:35:04,VALID,918.07,VALID,0,VALID,104,VALID,375.399,VALID,21.9461,VALID,43,VALID,0,
2016-07-13, 08:36:04,VALID,918.083,VALID,0,VALID,96.2609,VALID,299.116,VALID,21.9054,VALID,18,VALID,0,
2016-07-13, 08:37:04,VALID,918.058,VALID,0,VALID,93.6232,VALID,334.787,VALID,21.964,VALID,44,VALID,0,
2016-07-13, 08:38:04,VALID,918.057,VALID,0,VALID,97.7779,VALID,366.697,VALID,21.9835,VALID,52,VALID,0,
2016-07-13, 08:39:04,VALID,918.05,VALID,0,VALID,96.4515,VALID,372.498,VALID,22.0598,VALID,56,VALID,0,
2016-07-13, 08:40:04,VALID,918.034,VALID,0,VALID,100.24,VALID,368.523,VALID,22.1981,VALID,55,VALID,0,
2016-07-13, 08:41:04,VALID,918.034,VALID,0,VALID,89.5218,VALID,336.183,VALID,22.3152,VALID,330,VALID,0,
2016-07-13, 08:42:04,VALID,918.057,VALID,0,VALID,89.8801,VALID,304.918,VALID,22.2745,VALID,330,VALID,0,
2016-07-13, 08:43:04,VALID,918.043,VALID,0,VALID,94.1797,VALID,388.722,VALID,22.3542,VALID,49,VALID,0,
2016-07-13, 08:44:04,VALID,918.036,VALID,0,VALID,85.3213,VALID,429.979,VALID,22.3916,VALID,43,VALID,0,
2016-07-13, 08:45:04,VALID,918.08,VALID,0,VALID,83.2706,VALID,275.694,VALID,22.4501,VALID,39,VALID,0,
2016-07-13, 08:46:04,VALID,918.083,VALID,0,VALID,81.8755,VALID,364.118,VALID,22.5281,VALID,79,VALID,0,
2016-07-13, 08:47:04,VALID,918.133,VALID,0,VALID,83.5298,VALID,470.055,VALID,22.5672,VALID,47,VALID,0,
2016-07-13, 08:48:04,VALID,918.153,VALID,0,VALID,83.4307,VALID,484.667,VALID,22.6257,VALID,53,VALID,0,
2016-07-13, 08:49:04,VALID,918.163,VALID,0,VALID,83.2706,VALID,481.229,VALID,22.7445,VALID,9,VALID,0,
2016-07-13, 08:50:04,VALID,918.199,VALID,0,VALID,82.6455,VALID,469.41,VALID,22.9007,VALID,32,VALID,0,
2016-07-13, 08:51:04,VALID,918.203,VALID,0,VALID,79.8553,VALID,467.047,VALID,23.016,VALID,360,VALID,0,
2016-07-13, 08:52:04,VALID,918.205,VALID,0,VALID,81.5248,VALID,468.336,VALID,23.0941,VALID,39,VALID,0,
2016-07-13, 08:53:04,VALID,918.162,VALID,0,VALID,80.9226,VALID,466.187,VALID,23.0941,VALID,35,VALID,1.62031,
2016-07-13, 08:54:04,VALID,918.191,VALID,0,VALID,86.3657,VALID,484.345,VALID,23.1722,VALID,29,VALID,0.827344,
2016-07-13, 08:55:04,VALID,918.217,VALID,0,VALID,79.7409,VALID,531.082,VALID,23.268,VALID,334,VALID,0,
2016-07-13, 08:56:04,VALID,918.17,VALID,0,VALID,79.1616,VALID,502.61,VALID,23.2893,VALID,6,VALID,0.0121094,
2016-07-13, 08:57:04,VALID,918.163,VALID,0,VALID,81.0522,VALID,504.436,VALID,23.2875,VALID,28,VALID,0,
2016-07-13, 08:58:04,VALID,918.188,VALID,0,VALID,80.7701,VALID,352.944,VALID,23.3851,VALID,302,VALID,0,
2016-07-13, 08:59:04,VALID,918.208,VALID,0,VALID,78.0714,VALID,480.369,VALID,23.1704,VALID,307,VALID,0,
2016-07-13, 09:00:04,VALID,918.239,VALID,0,VALID,78.7575,VALID,401.615,VALID,22.9965,VALID,299,VALID,0,
2016-07-13, 09:01:04,VALID,918.196,VALID,0,VALID,80.1297,VALID,368.201,VALID,22.9007,VALID,299,VALID,0,
2016-07-13, 09:02:04,VALID,918.225,VALID,0,VALID,81.6773,VALID,240.776,VALID,22.8794,VALID,341,VALID,0,
2016-07-13, 09:03:04,VALID,918.239,VALID,0,VALID,81.197,VALID,331.456,VALID,22.938,VALID,347,VALID,0,
2016-07-13, 09:04:04,VALID,918.24,VALID,0,VALID,81.1665,VALID,401.185,VALID,23.0551,VALID,13,VALID,0,
2016-07-13, 09:05:04,VALID,918.229,VALID,0,VALID,81.7916,VALID,624.985,VALID,23.2307,VALID,16,VALID,0,
2016-07-13, 09:06:04,VALID,918.27,VALID,0,VALID,79.314,VALID,466.724,VALID,23.4454,VALID,335,VALID,0,
2016-07-13, 09:07:04,VALID,918.257,VALID,0,VALID,77.7436,VALID,572.661,VALID,23.6406,VALID,317,VALID,0,
2016-07-13, 09:08:04,VALID,918.242,VALID,0,VALID,77.7283,VALID,323.828,VALID,23.6974,VALID,287,VALID,0,
2016-07-13, 09:09:04,VALID,918.26,VALID,0,VALID,77.9037,VALID,605.861,VALID,23.5608,VALID,341,VALID,0,
2016-07-13, 09:10:04,VALID,918.26,VALID,0,VALID,78.2849,VALID,422.888,VALID,23.5412,VALID,349,VALID,0,
2016-07-13, 09:11:04,VALID,918.287,VALID,0,VALID,77.9113,VALID,247.652,VALID,23.5412,VALID,14,VALID,0,
2016-07-13, 09:12:04,VALID,918.272,VALID,0,VALID,77.553,VALID,284.182,VALID,23.5608,VALID,13,VALID,0,
2016-07-13, 09:13:04,VALID,918.263,VALID,0,VALID,79.2988,VALID,615.101,VALID,23.6388,VALID,27,VALID,0,
2016-07-13, 09:14:04,VALID,918.284,VALID,0,VALID,78.1248,VALID,682.574,VALID,23.7364,VALID,4,VALID,0,
2016-07-13, 09:15:04,VALID,918.27,VALID,0,VALID,78.2849,VALID,276.231,VALID,23.8145,VALID,23,VALID,0,
2016-07-13, 09:16:04,VALID,918.227,VALID,0,VALID,75.8225,VALID,226.379,VALID,23.8926,VALID,26,VALID,0,
2016-07-13, 09:17:04,VALID,918.249,VALID,0,VALID,76.2723,VALID,294.281,VALID,23.9316,VALID,19,VALID,0,
2016-07-13, 09:18:04,VALID,918.251,VALID,0,VALID,75.9292,VALID,436.856,VALID,23.834,VALID,346,VALID,0,
2016-07-13, 09:19:04,VALID,918.309,VALID,0,VALID,75.8682,VALID,598.232,VALID,23.6974,VALID,257,VALID,0,
2016-07-13, 09:20:04,VALID,918.292,VALID,0,VALID,76.5848,VALID,561.058,VALID,23.5998,VALID,255,VALID,0,
2016-07-13, 09:21:04,VALID,918.355,VALID,0,VALID,76.6153,VALID,622.836,VALID,23.7169,VALID,255,VALID,0,
2016-07-13, 09:22:04,VALID,918.373,VALID,0,VALID,76.9889,VALID,548.38,VALID,23.8926,VALID,297,VALID,0,
2016-07-13, 09:23:04,VALID,918.381,VALID,0,VALID,77.3853,VALID,571.265,VALID,24.0079,VALID,298,VALID,0,
2016-07-13, 09:24:04,VALID,918.402,VALID,0,VALID,76.4934,VALID,565.785,VALID,24.2049,VALID,289,VALID,0,
2016-07-13, 09:25:04,VALID,918.421,VALID,0,VALID,75.5709,VALID,567.826,VALID,24.1269,VALID,320,VALID,0,
2016-07-13, 09:26:04,VALID,918.415,VALID,0,VALID,75.5938,VALID,571.802,VALID,24.1287,VALID,296,VALID,0,
2016-07-13, 09:27:04,VALID,918.452,VALID,0,VALID,75.9826,VALID,579,VALID,24.0878,VALID,294,VALID,0,
2016-07-13, 09:28:04,VALID,918.439,VALID,0,VALID,75.2355,VALID,587.273,VALID,24.0665,VALID,293,VALID,0,
2016-07-13, 09:29:04,VALID,918.442,VALID,0,VALID,77.5683,VALID,591.249,VALID,24.0683,VALID,316,VALID,0,
2016-07-13, 09:30:04,VALID,918.455,VALID,0,VALID,76.6916,VALID,615.96,VALID,24.2226,VALID,326,VALID,0,
2016-07-13, 09:31:04,VALID,918.47,VALID,0,VALID,76.844,VALID,385.606,VALID,24.2617,VALID,348,VALID,0.223828,
2016-07-13, 09:32:04,VALID,918.509,VALID,0,VALID,74.9611,VALID,616.712,VALID,24.2635,VALID,347,VALID,0,
2016-07-13, 09:33:04,VALID,918.509,VALID,0,VALID,75.9673,VALID,540.322,VALID,24.1445,VALID,294,VALID,0,
2016-07-13, 09:34:04,VALID,918.517,VALID,0,VALID,76.9203,VALID,619.291,VALID,24.3593,VALID,31,VALID,0.0804688,
2016-07-13, 09:35:04,VALID,918.523,VALID,0,VALID,74.7857,VALID,712.227,VALID,24.4392,VALID,47,VALID,0.176563,
2016-07-13, 09:36:04,VALID,918.562,VALID,0,VALID,75.3651,VALID,746.609,VALID,24.5564,VALID,346,VALID,0.998047,
2016-07-13, 09:37:04,VALID,918.505,VALID,0,VALID,73.6956,VALID,726.517,VALID,24.7693,VALID,2,VALID,1.86445,
2016-07-13, 09:38:04,VALID,918.482,VALID,0,VALID,75.2965,VALID,746.501,VALID,24.8669,VALID,26,VALID,1.72148,
2016-07-13, 09:39:04,VALID,918.514,VALID,0,VALID,73.1009,VALID,665.598,VALID,25.0231,VALID,289,VALID,1.01719,
2016-07-13, 09:40:04,VALID,918.487,VALID,0,VALID,72.7121,VALID,610.695,VALID,25.0231,VALID,342,VALID,0.864453,
2016-07-13, 09:41:04,VALID,918.484,VALID,0,VALID,73.7108,VALID,774.973,VALID,25.1988,VALID,342,VALID,0.416406,
2016-07-13, 09:42:04,VALID,918.467,VALID,0,VALID,72.613,VALID,580.505,VALID,25.4331,VALID,359,VALID,0.00585938,
2016-07-13, 09:43:04,VALID,918.515,VALID,0,VALID,72.1023,VALID,366.267,VALID,25.648,VALID,352,VALID,0,
2016-07-13, 09:44:04,VALID,918.53,VALID,0,VALID,69.8229,VALID,376.796,VALID,25.7046,VALID,329,VALID,0,
2016-07-13, 09:45:04,VALID,918.523,VALID,0,VALID,69.2587,VALID,706.103,VALID,25.5894,INVALID,360,VALID,0,
2016-07-13, 09:46:04,VALID,918.491,VALID,0,VALID,72.8341,VALID,760.254,VALID,25.3941,VALID,354,VALID,0.678516,
2016-07-13, 09:47:04,VALID,918.519,VALID,0,VALID,73.2382,VALID,566.752,VALID,25.3746,VALID,13,VALID,0,
2016-07-13, 09:48:04,VALID,918.501,VALID,0,VALID,71.6067,VALID,593.935,VALID,25.4507,VALID,8,VALID,0,
2016-07-13, 09:49:04,VALID,918.524,VALID,0,VALID,70.7072,VALID,458.237,VALID,25.5874,VALID,19,VALID,0,
2016-07-13, 09:50:04,VALID,918.468,VALID,0,VALID,71.4009,VALID,451.253,VALID,25.6655,VALID,10,VALID,0,
2016-07-13, 09:51:04,VALID,918.487,VALID,0,VALID,70.6386,VALID,413.434,VALID,25.8022,VALID,338,VALID,0,
2016-07-13, 09:52:04,VALID,918.48,VALID,0,VALID,70.3184,VALID,722.219,VALID,25.7241,VALID,122,VALID,0,
2016-07-13, 09:53:04,VALID,918.51,VALID,0,VALID,69.3273,VALID,398.822,VALID,25.7437,VALID,31,VALID,0,
2016-07-13, 09:54:04,VALID,918.498,VALID,0,VALID,71.2713,VALID,381.846,VALID,25.5679,VALID,289,VALID,0,
2016-07-13, 09:55:04,VALID,918.481,VALID,0,VALID,70.8063,VALID,533.768,VALID,25.5698,VALID,340,VALID,0,
2016-07-13, 09:56:04,VALID,918.469,VALID,0,VALID,71.805,VALID,406.45,VALID,25.5113,VALID,26,VALID,0.889063,
2016-07-13, 09:57:04,VALID,918.483,VALID,0,VALID,72.7503,VALID,354.019,VALID,25.3941,VALID,3,VALID,0,
2016-07-13, 09:58:04,VALID,918.489,VALID,0,VALID,73.1009,VALID,380.879,VALID,25.4136,VALID,25,VALID,0,
2016-07-13, 09:59:04,VALID,918.482,VALID,0,VALID,72.2852,VALID,319.745,VALID,25.2183,VALID,267,VALID,0.00585938,
2016-07-13, 10:00:04,VALID,918.512,VALID,0,VALID,73.6498,VALID,269.462,VALID,25.0426,VALID,258,VALID,0,
2016-07-13, 10:01:04,VALID,918.546,VALID,0,VALID,75.4794,VALID,279.884,VALID,25.0407,VALID,344,VALID,0.00429688,
2016-07-13, 10:02:04,VALID,918.488,VALID,0,VALID,72.8417,VALID,319.423,VALID,24.9645,VALID,18,VALID,0.530469,
2016-07-13, 10:03:04,VALID,918.446,VALID,0,VALID,73.8785,VALID,316.092,VALID,24.8083,VALID,35,VALID,2.47383,
2016-07-13, 10:04:04,VALID,918.465,VALID,0,VALID,74.6714,VALID,741.129,VALID,24.7693,VALID,6,VALID,0.534375,
2016-07-13, 10:05:04,VALID,918.504,VALID,0,VALID,73.7261,VALID,840.19,VALID,24.8864,VALID,31,VALID,1.86953,
2016-07-13, 10:06:04,VALID,918.54,VALID,0,VALID,74.7628,VALID,315.232,VALID,24.9645,VALID,348,VALID,0.482812,
2016-07-13, 10:07:04,VALID,918.546,VALID,0,VALID,72.9408,VALID,617.894,VALID,25.0426,VALID,340,VALID,0,
2016-07-13, 10:08:04,VALID,918.516,VALID,0,VALID,74.2368,VALID,585.232,VALID,25.1793,VALID,5,VALID,0.00429688,
2016-07-13, 10:09:04,VALID,918.489,VALID,0,VALID,73.0552,VALID,411.07,VALID,25.2555,VALID,346,VALID,0.179297,
2016-07-13, 10:10:04,VALID,918.484,VALID,0,VALID,72.9713,VALID,324.902,VALID,25.3355,VALID,342,VALID,0.0613281,
2016-07-13, 10:11:04,VALID,918.477,VALID,0,VALID,72.7731,VALID,274.727,VALID,25.2379,VALID,357,VALID,0.254297,
2016-07-13, 10:12:04,VALID,918.46,VALID,0,VALID,71.3704,VALID,251.627,VALID,25.1402,VALID,320,VALID,0.540234,
2016-07-13, 10:13:04,VALID,918.506,VALID,0,VALID,73.0018,VALID,238.197,VALID,25.0407,VALID,57,VALID,0,
2016-07-13, 10:14:04,VALID,918.479,VALID,0,VALID,71.6525,VALID,223.692,VALID,25.0621,VALID,17,VALID,0.181641,
2016-07-13, 10:15:04,VALID,918.577,VALID,0,VALID,72.0184,VALID,243.569,VALID,25.0193,VALID,90,VALID,0,
2016-07-13, 10:16:04,VALID,918.562,VALID,0,VALID,72.1785,VALID,270.967,VALID,24.9412,VALID,142,VALID,0.0015625,
2016-07-13, 10:17:04,VALID,918.601,VALID,0,VALID,72.9408,VALID,295.785,VALID,24.8845,VALID,25,VALID,0.00429688,
2016-07-13, 10:18:04,VALID,918.596,VALID,0,VALID,74.5036,VALID,318.133,VALID,24.7655,VALID,25,VALID,0,
2016-07-13, 10:19:04,VALID,918.639,VALID,0,VALID,75.1516,VALID,417.194,VALID,24.8064,VALID,339,VALID,0.0015625,
2016-07-13, 10:20:04,VALID,918.621,VALID,0,VALID,73.8175,VALID,330.919,VALID,24.865,VALID,351,VALID,0.570313,
2016-07-13, 10:21:04,VALID,918.62,VALID,0,VALID,73.9776,VALID,819.346,VALID,24.865,VALID,17,VALID,0.667969,
2016-07-13, 10:22:04,VALID,918.598,VALID,0,VALID,74.3207,VALID,361.647,VALID,24.8826,VALID,331,VALID,0,
2016-07-13, 10:23:04,VALID,918.626,VALID,0,VALID,73.5431,VALID,437.608,VALID,25.0407,VALID,5,VALID,0,
2016-07-13, 10:24:04,VALID,918.519,VALID,0,VALID,73.0628,VALID,359.176,VALID,25.1969,VALID,5,VALID,0.633594,
2016-07-13, 10:25:04,VALID,918.586,VALID,0,VALID,73.0857,VALID,336.721,VALID,25.1383,VALID,247,VALID,0.103906,
2016-07-13, 10:26:04,VALID,918.567,VALID,0,VALID,72.209,VALID,279.562,VALID,25.0193,VALID,238,VALID,0,
2016-07-13, 10:27:04,VALID,918.551,VALID,0,VALID,73.7718,VALID,273.223,VALID,24.9431,VALID,238,VALID,0,
2016-07-13, 10:28:04,VALID,918.509,VALID,0,VALID,75.6167,VALID,227.56,VALID,24.904,VALID,40,VALID,0,
2016-07-13, 10:29:04,VALID,918.505,VALID,0,VALID,74.3969,VALID,351.547,VALID,25.0017,VALID,104,VALID,0,
2016-07-13, 10:30:04,VALID,918.505,VALID,0,VALID,73.9166,VALID,409.673,VALID,25.0798,VALID,97,VALID,0,
2016-07-13, 10:31:04,VALID,918.491,VALID,0,VALID,74.3817,VALID,339.944,VALID,25.2007,VALID,88,VALID,0,
2016-07-13, 10:32:04,VALID,918.473,VALID,0,VALID,74.3359,VALID,280.851,VALID,25.2984,VALID,66,VALID,0,
2016-07-13, 10:33:04,VALID,918.479,VALID,0,VALID,73.4364,VALID,364.011,VALID,25.2984,VALID,51,VALID,0,
2016-07-13, 10:34:04,VALID,918.453,VALID,0,VALID,74.0615,VALID,450.608,VALID,25.2965,VALID,39,VALID,0.492969,
2016-07-13, 10:35:04,VALID,918.478,VALID,0,VALID,72.552,VALID,595.976,VALID,25.396,VALID,326,VALID,0,
2016-07-13, 10:36:04,VALID,918.467,VALID,0,VALID,73.1924,VALID,976.962,VALID,25.5523,VALID,313,VALID,0,
2016-07-13, 10:37:04,VALID,918.477,VALID,0,VALID,72.6969,VALID,621.654,VALID,25.8648,VALID,2,VALID,0.0898438,
2016-07-13, 10:38:04,VALID,918.46,VALID,0,VALID,71.2637,VALID,434.277,VALID,26.0796,VALID,7,VALID,0.616406,
2016-07-13, 10:39:04,VALID,918.425,VALID,0,VALID,69.8915,VALID,411.285,VALID,25.8823,VALID,336,VALID,0.0828125,
2016-07-13, 10:40:04,VALID,918.42,VALID,0,VALID,72.148,VALID,314.373,VALID,25.8433,VALID,30,VALID,0.0652344,
2016-07-13, 10:41:04,VALID,918.457,VALID,0,VALID,70.2498,VALID,303.091,VALID,25.8022,VALID,34,VALID,0,
2016-07-13, 10:42:04,VALID,918.445,VALID,0,VALID,71.8126,VALID,355.845,VALID,25.7847,VALID,310,VALID,0,
2016-07-13, 10:43:04,VALID,918.361,VALID,0,VALID,71.6906,VALID,964.499,VALID,25.6284,VALID,22,VALID,1.93008,
2016-07-13, 10:44:04,VALID,918.321,VALID,0,VALID,72.1861,VALID,388.83,VALID,25.6499,VALID,35,VALID,1.72852,
2016-07-13, 10:45:04,VALID,918.309,VALID,0,VALID,68.7327,VALID,310.827,VALID,25.5679,VALID,324,VALID,1.60859,
2016-07-13, 10:46:04,VALID,918.259,VALID,0,VALID,71.0045,VALID,378.193,VALID,25.3746,VALID,55,VALID,0,
2016-07-13, 10:47:04,VALID,918.248,VALID,0,VALID,72.8036,VALID,992.112,VALID,25.4703,VALID,44,VALID,1.65,
2016-07-13, 10:48:04,VALID,918.162,VALID,0,VALID,70.8978,VALID,772.824,VALID,25.7651,VALID,18,VALID,3.24297,
2016-07-13, 10:49:04,VALID,918.192,VALID,0,VALID,66.0112,VALID,1007.37,VALID,25.9194,VALID,351,VALID,2.34766,
2016-07-13, 10:50:04,VALID,918.164,VALID,0,VALID,68.8928,VALID,842.768,VALID,25.9194,VALID,1,VALID,2.08125,
2016-07-13, 10:51:04,VALID,918.202,VALID,0,VALID,69.0529,VALID,335.754,VALID,26.0757,VALID,352,VALID,1.25586,
2016-07-13, 10:52:04,VALID,918.201,VALID,0,VALID,67.6731,VALID,354.233,VALID,25.8999,VALID,13,VALID,1.89453,
2016-07-13, 10:53:04,VALID,918.158,VALID,0,VALID,70.2422,VALID,793.131,VALID,25.7437,VALID,4,VALID,0.0886719,
2016-07-13, 10:54:04,VALID,918.158,VALID,0,VALID,69.5027,VALID,546.016,VALID,25.8433,VALID,8,VALID,0.256641,
2016-07-13, 10:55:04,VALID,918.134,VALID,0,VALID,70.3184,VALID,549.239,VALID,25.7632,VALID,323,VALID,0.00585938,
2016-07-13, 10:56:04,VALID,918.188,VALID,0,VALID,70.4022,VALID,379.482,VALID,25.8218,VALID,353,VALID,0.219531,
2016-07-13, 10:57:04,VALID,918.112,VALID,0,VALID,67.3529,VALID,892.729,VALID,25.9585,VALID,10,VALID,0.957812,
2016-07-13, 10:58:04,VALID,918.09,VALID,0,VALID,67.8027,VALID,769.494,VALID,25.8608,VALID,3,VALID,2.36055,
2016-07-13, 10:59:04,VALID,918.06,VALID,0,VALID,71.3552,VALID,709.864,VALID,25.646,VALID,2,VALID,2.575,
2016-07-13, 11:00:04,VALID,918.049,VALID,0,VALID,71.9498,VALID,1000.38,VALID,25.7632,VALID,25,VALID,0.475391,
2016-07-13, 11:01:04,VALID,918.051,VALID,0,VALID,71.4695,VALID,788.081,VALID,25.9389,VALID,10,VALID,0.602734,
2016-07-13, 11:02:04,VALID,918.061,VALID,0,VALID,68.1305,VALID,943.763,VALID,26.0757,VALID,309,VALID,2.62578,
2016-07-13, 11:03:04,VALID,918.079,VALID,0,VALID,70.6462,VALID,1001.78,VALID,25.978,VALID,2,VALID,1.75781,
2016-07-13, 11:04:04,VALID,917.972,VALID,0,VALID,69.4798,VALID,960.309,VALID,26.1713,VALID,304,VALID,0.732031,
2016-07-13, 11:05:04,VALID,917.926,VALID,0,VALID,65.9349,VALID,919.696,VALID,26.3686,VALID,9,VALID,3.13672,
2016-07-13, 11:06:04,VALID,917.953,VALID,0,VALID,68.2372,VALID,726.41,VALID,26.3471,VALID,31,VALID,1.19648,
2016-07-13, 11:07:04,VALID,917.857,VALID,0,VALID,67.2766,VALID,925.176,VALID,26.5269,VALID,15,VALID,3.17773,
2016-07-13, 11:08:04,VALID,917.811,VALID,0,VALID,67.1775,VALID,879.191,VALID,26.605,VALID,42,VALID,3.29492,
2016-07-13, 11:09:04,VALID,917.806,VALID,0,VALID,67.1775,VALID,300.62,VALID,26.7593,VALID,37,VALID,0.0121094,
2016-07-13, 11:10:04,VALID,917.713,VALID,0,VALID,67.3681,VALID,842.768,VALID,26.8374,VALID,71,VALID,1.45,
2016-07-13, 11:11:04,VALID,917.783,VALID,0,VALID,68.0542,VALID,827.727,VALID,26.896,VALID,10,VALID,1.41875,
2016-07-13, 11:12:04,VALID,917.784,VALID,0,VALID,67.0784,VALID,805.916,VALID,26.9351,VALID,16,VALID,1.49883,
2016-07-13, 11:13:04,VALID,917.683,VALID,0,VALID,62.4663,VALID,773.469,VALID,27.0739,VALID,338,VALID,0.839453,
2016-07-13, 11:14:04,VALID,917.7,VALID,0,VALID,63.4116,VALID,798.825,VALID,27.0153,VALID,324,VALID,0.2125,
2016-07-13, 11:15:04,VALID,917.668,VALID,0,VALID,65.5995,VALID,369.275,VALID,27.0719,VALID,59,VALID,0.340234,
2016-07-13, 11:16:04,VALID,917.709,VALID,0,VALID,64.4865,VALID,869.199,VALID,27.2107,VALID,355,VALID,1.09375,
2016-07-13, 11:17:04,VALID,917.663,VALID,0,VALID,60.9492,VALID,397.103,VALID,27.15,VALID,324,VALID,1.27852,
2016-07-13, 11:18:04,VALID,917.581,VALID,0,VALID,64.1663,VALID,327.266,VALID,26.8004,VALID,26,VALID,3.05,
2016-07-13, 11:19:04,VALID,917.591,VALID,0,VALID,64.8676,VALID,976.425,VALID,26.7202,VALID,20,VALID,1.30703,
2016-07-13, 11:20:04,VALID,917.616,VALID,0,VALID,64.5093,VALID,606.935,VALID,26.8395,VALID,347,VALID,1.9875,
2016-07-13, 11:21:04,VALID,917.545,VALID,0,VALID,63.0685,VALID,394.631,VALID,26.7593,VALID,230,VALID,0.706641,
2016-07-13, 11:22:04,VALID,917.536,VALID,0,VALID,64.2425,VALID,432.88,VALID,26.7223,VALID,201,VALID,0.394141,
2016-07-13, 11:23:04,VALID,917.566,VALID,0,VALID,64.3111,VALID,266.132,VALID,26.6812,VALID,24,VALID,0.486328,
2016-07-13, 11:24:04,VALID,917.526,VALID,0,VALID,65.0659,VALID,310.075,VALID,26.5444,VALID,277,VALID,0.455078,
2016-07-13, 11:25:04,VALID,917.525,VALID,0,VALID,68.2982,VALID,892.299,VALID,26.1928,VALID,54,VALID,1.07344,
2016-07-13, 11:26:04,VALID,917.553,VALID,0,VALID,66.9031,VALID,429.979,VALID,26.2319,VALID,7,VALID,0.256641,
2016-07-13, 11:27:04,VALID,917.467,VALID,0,VALID,66.9641,VALID,438.145,VALID,26.31,VALID,29,VALID,2.80352,
2016-07-13, 11:28:04,VALID,917.517,VALID,0,VALID,67.4977,VALID,931.085,VALID,26.4858,VALID,328,VALID,0.0242187,
2016-07-13, 11:29:04,VALID,917.535,VALID,0,VALID,66.217,VALID,963.317,VALID,26.7593,VALID,348,VALID,0.00195313,
2016-07-13, 11:30:04,VALID,917.532,VALID,0,VALID,64.8676,VALID,900.142,VALID,26.9546,VALID,359,VALID,0.104687,
2016-07-13, 11:31:04,VALID,917.51,VALID,0,VALID,64.0443,VALID,696.541,VALID,27.0523,VALID,284,VALID,0,
2016-07-13, 11:32:04,VALID,917.481,VALID,0,VALID,62.5806,VALID,367.019,VALID,27.15,VALID,33,VALID,0.000390625,
2016-07-13, 11:33:04,VALID,917.465,VALID,0,VALID,65.8358,VALID,989.963,VALID,27.0132,VALID,55,VALID,0.117578,
2016-07-13, 11:34:04,VALID,917.464,VALID,0,VALID,62.7331,VALID,319.315,VALID,27.1305,VALID,265,VALID,0,
2016-07-13, 11:35:04,VALID,917.43,VALID,0,VALID,63.6098,VALID,301.158,VALID,27.1109,VALID,10,VALID,0,
2016-07-13, 11:36:04,VALID,917.459,VALID,0,VALID,64.4941,VALID,301.587,VALID,26.9721,VALID,244,VALID,0,
2016-07-13, 11:37:04,VALID,917.403,VALID,0,VALID,66.5524,VALID,455.121,VALID,26.896,VALID,87,VALID,0.0660156,
2016-07-13, 11:38:04,VALID,917.436,VALID,0,VALID,65.104,VALID,278.058,VALID,26.7202,VALID,184,VALID,0.326953,
2016-07-13, 11:39:04,VALID,917.449,VALID,0,VALID,66.5143,VALID,247.544,VALID,26.5835,VALID,359,VALID,0.277344,
2016-07-13, 11:40:04,VALID,917.432,VALID,0,VALID,66.865,VALID,227.238,VALID,26.4272,VALID,9,VALID,0,
2016-07-13, 11:41:04,VALID,917.378,VALID,0,VALID,66.804,VALID,218.213,VALID,26.2124,VALID,171,VALID,0.0289063,
2016-07-13, 11:42:04,VALID,917.397,VALID,0,VALID,68.5193,VALID,251.735,VALID,26.0952,VALID,55,VALID,0.0453125,